OpenBCM V1.13 (Linux)

Packet Radio Mailbox

DB0FHN

[JN59NK Nuernberg]

 Login: GUEST





  
I0OJJ  > KEPS     09.02.26 02:33l 317 Lines 15172 Bytes #999 (0) @ AMSAT
BID : ORB26040.1
Read: OE5RCO DJ6UX GUEST
Subj: 2Line Orbital Elements 26040.AMSAT
Path: DB0FHN<DB0RKB<DK0WUE<PD0LPM<PI8ZTM<CX2SA<EA2RCF<I0OJJ
Sent: 260209/0021z @:I0OJJ.ITA.EU [Rome] obcm1.13-38-g65b7
From: I0OJJ @ I0OJJ.ITA.EU (Gustavo)
To:   KEPS @ AMSAT
X-Info: This message was generated automatically


QST de W1STR

AMSAT Orbital Elements for Amateur Satellites in TLE Format
From Orbital Analysis Office
New England Sci-Tech STEM Education Center
Natick MA February 09, 2026
To all radio amateurs


These element sets describe the orbits of various satellites 
in use by the amateur radio community. For details see:
www.amsat.org/keplerian-elements-formats/

A daily update of element sets is available at:
www.amsat.org/tle/daily-bulletin.txt
or without bulletin text:
www.amsat.org/tle/dailytle.txt


AO-07
1 07530U 74089B   26039.60045310 -.00000036  00000-0  66082-4 0  9998
2 07530 101.9973  51.4780 0012250  17.9187  96.6395 12.53695663344404
UO-11
1 14781U 84021B   26039.67117193  .00001737  00000-0  18408-3 0  9993
2 14781  97.7900   6.8372 0006114 244.5427 115.5158 14.90397005237984
AO-27
1 22825U 93061C   26039.68794513  .00000127  00000-0  65301-4 0  9990
2 22825  98.7045 107.0668 0009413 115.0738 245.1423 14.30903067688628
FO-29
1 24278U 96046B   26039.59126143 -.00000021  00000-0  12134-4 0  9998
2 24278  98.5419 265.9417 0350803  70.1420 293.7168 13.53266675455776
GO-32
1 25397U 98043D   26039.58868575  .00000107  00000-0  66417-4 0  9998
2 25397  98.9990  29.1568 0000870 173.2309 186.8881 14.24397543433027
ISS
1 25544U 98067A   26039.59996980  .00008889  00000-0  17211-3 0  9993
2 25544  51.6313 216.1577 0011035  77.5493 282.6729 15.48484385551822
NO-44
1 26931U 01043C   26039.71115618  .00000228  00000-0  11622-3 0  9996
2 26931  67.0488 216.5557 0007040 266.4484  93.5813 14.31895162272057
SO-50
1 27607U 02058C   26039.68261360  .00002006  00000-0  25479-3 0  9997
2 27607  64.5528 166.4735 0074445 285.9409  73.3503 14.82665586245404
CO-55
1 27844U 03031E   26039.54970104  .00000406  00000-0  19496-3 0  9994
2 27844  98.6776  49.7125 0009316 192.9053 167.1889 14.24240987173367
CO-57
1 27848U 03031J   26039.47417507  .00000358  00000-0  17660-3 0  9990
2 27848  98.6804  49.4540 0008858 211.9931 148.0711 14.23539939173064
RS-22
1 27939U 03042A   26039.86901938  .00001443  00000-0  23196-3 0  9999
2 27939  98.3406 220.6342 0010652 320.6620 175.0518 14.73169190196659
CO-58
1 28895U 05043F   26039.35538322  .00002379  00000-0  38528-3 0  9995
2 28895  98.2780 192.4377 0013258 253.0073 106.9681 14.72185762 82790
CO-65
1 32785U 08021C   26039.85210096  .00006498  00000-0  42665-3 0  9990
2 32785  97.8166  18.8281 0011306 102.4524 257.7969 15.07942202965840
CO-66
1 32791U 08021J   26039.52524557  .00019488  00000-0  71975-3 0  9990
2 32791  97.7498  31.7811 0005233  65.2996 294.8787 15.27779265967614
RS-30
1 32953U 08025A   26039.81605846  .00000024  00000-0  10284-3 0  9999
2 32953  82.4989  75.2947 0018573 229.2459 130.7010 12.43174868803743
SRMSAT
1 37841U 11058D   26039.50671611  .00000484  00000-0  11864-3 0  9994
2 37841  19.9715 118.3284 0011532 228.2466 263.4986 14.11536654739616
ZACUBE-1
1 39417U 13066B   26039.84839111  .00007340  00000-0  58527-3 0  9999
2 39417  97.8174   1.5356 0040748 319.6505  40.1697 14.99969786661484
Delfi-N3xt
1 39428U 13066N   26039.73551184  .00009455  00000-0  86172-3 0  9996
2 39428  97.8351 320.3478 0075307 274.1532  85.1083 14.93179270655446
GOMX-1
1 39430U 13066Q   26039.80864822  .00003357  00000-0  51039-3 0  9992
2 39430  97.6581 248.3127 0130587 129.3500 231.9365 14.68974760651067
LO-74
1 39440U 13066AA  26039.80732340  .00005556  00000-0  52631-3 0  9994
2 39440  97.8776 348.4532 0060869  92.7516 268.0672 14.92603545657833
AO-73
1 39444U 13066AE  26039.83573057  .00009905  00000-0  65012-3 0  9998
2 39444  97.8149   8.9083 0035558 281.1320  78.5910 15.07336961660312
DTUSAT-2
1 40030U 14033W   26039.82894429  .00009447  00000-0  53918-3 0  9997
2 40030  98.0824  29.6387 0006804 325.1940  34.8843 15.12965289633265
EO-80
1 40032U 14033Y   26039.83540656  .00009623  00000-0  54725-3 0  9993
2 40032  98.0708  28.9603 0005731 247.7092 112.3530 15.13093588633244
LILACSAT-2
1 40908U 15049K   26039.80367605  .00017526  00000-0  34924-3 0  9991
2 40908  97.4856  72.0439 0007677  13.5222 346.6232 15.46924538575874
Horyu-4
1 41340U 16012D   26039.04077826  .00075730  00000-0  96484-3 0  9992
2 41340  30.9910 274.5718 0001782  84.7050 275.3804 15.57965420550476
Lapan A3
1 41603U 16040E   26039.89844090  .00004282  00000-0  14021-3 0  9994
2 41603  97.1466  40.3720 0012354 111.9082 248.3475 15.32118597535167
CAS-2T
1 41847U 16066G   26039.75071451  .00002009  00000-0  28978-3 0  9991
2 41847  98.3941 116.9128 0343477 158.9988 202.5711 14.44364611486251
TechnoSat
1 42829U 17042E   26039.75580080  .00003985  00000-0  29164-3 0  9992
2 42829  97.4095 202.5021 0018204 167.8345 192.3325 15.04002311467393
AO-91
1 43017U 17073E   26039.58072179  .00009704  00000-0  44244-3 0  9993
2 43017  97.4905 269.4975 0158717  52.1373 309.4093 15.10208238445969
S-Net D
1 43186U 18014G   26039.68721213  .00006670  00000-0  35798-3 0  9990
2 43186  97.5458 305.3389 0010196 100.6805 259.5576 15.15228694439299
S-Net B
1 43187U 18014H   26039.69624654  .00006292  00000-0  33813-3 0  9999
2 43187  97.5460 305.3303 0010945  97.1493 263.0984 15.15201447439294
S-Net A
1 43188U 18014J   26039.68668244  .00006656  00000-0  35716-3 0  9990
2 43188  97.5473 305.5065 0010784  97.3531 262.8927 15.15234747439295
S-Net C
1 43189U 18014K   26039.69945170  .00006074  00000-0  32648-3 0  9993
2 43189  97.5489 305.5739 0012297  91.4365 268.8275 15.15193514437849
Ten-Koh
1 43677U 18084G   26039.73603844  .00004134  00000-0  31812-3 0  9993
2 43677  98.0737 226.7168 0009416 188.6726 171.4336 15.02243936396876
PO-101
1 43678U 18084H   26039.83547632  .00002686  00000-0  22210-3 0  9999
2 43678  98.1069 230.6867 0008777 216.5086 143.5539 14.99819032396972
QO-100
1 43700U 18090A   26039.77045560  .00000151  00000-0  00000+0 0  9992
2 43700   0.0181 115.1459 0002379 248.6574  78.1705  1.00272171 26387
MinXSS-2
1 43758U 18099A   26039.85341156  .00029054  00000-0  76731-3 0  9994
2 43758  97.4687 113.1304 0008626  14.9067 345.2430 15.38371418394347
AO-95
1 43770U 18099N   26039.68756129  .00011888  00000-0  49834-3 0  9999
2 43770  97.4571 100.5778 0010631  82.8828 277.3617 15.23613469393638
SNUSat 2
1 43782U 18099AA  26039.69837554  .00009515  00000-0  44930-3 0  9991
2 43782  97.4259  95.1340 0011445  32.3404 327.8530 15.19585756393505
SnugLite
1 43784U 18099AC  26039.13425802  .00013531  00000-0  56081-3 0  9994
2 43784  97.4068  94.8471 0003750  47.2217 312.9335 15.24008120393647
ITASat 1
1 43786U 18099AE  26039.69353462  .00008511  00000-0  43054-3 0  9997
2 43786  97.4231  93.8109 0014504  82.2300 278.0580 15.17181303393415
EAGLET 1
1 43790U 18099AJ  26039.36829026  .00005522  00000-0  32645-3 0  9993
2 43790  97.4429  92.4224 0012775  73.4671 286.7962 15.11805211392866
ESEO
1 43792U 18099AL  26039.84434872  .00002149  00000-0  16032-3 0  9993
2 43792  97.4174  82.6439 0013666  57.2468 303.0073 15.03794482392514
JO-97
1 43803U 18099AX  26039.64256633  .00016190  00000-0  57347-3 0  9996
2 43803  97.4319 102.3340 0006225  19.6207 340.5272 15.29180885393955
Suomi 100
1 43804U 18099AY  26039.69106896  .00012312  00000-0  49288-3 0  9994
2 43804  97.4384 100.7425 0010879  21.5145 338.6548 15.25153242393819
ISAT
1 43879U 18111D   26039.72306691  .00044692  00000-0  86339-3 0  9994
2 43879  97.5899 326.9815 0008585  64.0689 296.1444 15.47624004391199
UWE-4
1 43880U 18111E   26039.74038625  .00027820  00000-0  74260-3 0  9991
2 43880  97.5855 323.0252 0011792  71.3289 288.9234 15.38018701390980
Sparrow
1 43881U 18111F   26039.80278329  .00055529  00000-0  96122-3 0  9994
2 43881  97.6103 331.2119 0008162  89.4426 270.7760 15.50718038391349
Prox-1
1 44339U 19036A   26038.98393201  .00015657  00000-0  16715-2 0  9992
2 44339  23.9946 255.0995 0007174 343.5994  16.4272 14.87082051354199
Taurus 1
1 44530U 19059C   26039.84427642  .00012187  00000-0  20226-2 0  9990
2 44530  98.6264 196.9647 0008319 353.4526   6.6569 14.70318016339776
TO-108
1 44881U 19093C   26039.80441628  .00000747  00000-0  90895-4 0  9993
2 44881  97.7662 115.1183 0014290 144.5906 215.6262 14.86271140332342
FloripaSat 1
1 44885U 19093G   26039.81319991  .00008130  00000-0  61991-3 0  9993
2 44885  97.7886 133.2761 0011889 142.0696 218.1368 15.02241565333362
RS-44
1 44909U 19096E   26039.55555690  .00000012  00000-0 -54853-5 0  9995
2 44909  82.5173  65.1836 0218664  85.1792 277.4238 12.79746960285898
SALSAT
1 46495U 20068K   26039.52887427  .00009894  00000-0  36924-3 0  9994
2 46495  97.8839  34.9874 0011484  42.3066 317.9056 15.27563685295700
CSS (TIANHE-1)
1 48274U 21035A   26039.39486025  .00021492  00000-0  26814-3 0  9995
2 48274  41.4686  26.2335 0005047  28.7158 331.3958 15.59352670273034
CUTE
1 49263U 21088D   26039.72091769  .00039701  00000-0  41824-3 0  9996
2 49263  97.4260 130.3608 0004442  64.0759 296.0957 15.64164903242342
TeikyoSat 4
1 49396U 21102B   26039.83089546  .00002795  00000-0  18050-3 0  9990
2 49396  97.3842  74.2403 0012716  22.3191 337.8589 15.08974670233368
Z-Sat
1 49399U 21102E   26039.83248421  .00005059  00000-0  25760-3 0  9994
2 49399  97.3511  79.0310 0016446 340.8140  19.2472 15.17121196233976
KOSEN 1
1 49402U 21102H   26039.67348870  .00008793  00000-0  35659-3 0  9996
2 49402  97.3388  84.3771 0012867 305.5917  54.4121 15.24785016234424
HO-113
1 50466U 21131B   26039.83137042  .00000771  00000-0  25264-3 0  9994
2 50466  98.4986 132.9490 0005153 118.2221 241.9488 14.41212156216626
SNUGLITE 2
1 52899U 22065F   26039.83107686  .00001525  00000-0  29982-3 0  9993
2 52899  98.1978 185.0609 0008500  70.7263 289.4858 14.64046336192210
